,,Stat6,,Stat2,,Stat8,,Stat9,,Stat10,,Wind1,,Wind1,
time,status,PA1M_AVG,status,PR1M_SUM,status,RH1M_AVG,status,SR1M_AVG,status,TA1M_AVG,status,W1dAve1m,status,W1sAve1m,
2005-12-26, 00:00:00,VALID,918.993,VALID,0,VALID,99.986,VALID,-0.0169808,VALID,18.4873,VALID,103,VALID,0,
2005-12-26, 00:01:00,VALID,918.999,VALID,0,VALID,100,VALID,0,VALID,18.4977,VALID,103,VALID,0.00452303,
2005-12-26, 00:02:00,VALID,918.988,VALID,0,VALID,100,VALID,0,VALID,18.5069,VALID,97,VALID,0.112165,
2005-12-26, 00:03:00,VALID,918.971,VALID,0,VALID,99.9931,VALID,-0.0339617,VALID,18.5072,VALID,328,VALID,0.776278,
2005-12-26, 00:04:00,VALID,918.957,VALID,0,VALID,99.999,VALID,-4.62593e-018,VALID,18.5032,VALID,330,VALID,0.512536,
2005-12-26, 00:05:00,VALID,918.951,VALID,0,VALID,99.9501,VALID,0.101885,VALID,18.5088,VALID,327,VALID,0.398819,
2005-12-26, 00:06:00,VALID,918.934,VALID,0,VALID,99.8845,VALID,0.101885,VALID,18.5025,VALID,305,VALID,0.557664,
2005-12-26, 00:07:00,VALID,918.917,VALID,0,VALID,99.9507,VALID,0.101885,VALID,18.5021,VALID,305,VALID,0.105646,
2005-12-26, 00:08:00,VALID,918.9,VALID,0,VALID,99.943,VALID,0.101885,VALID,18.5055,VALID,305,VALID,0,
2005-12-26, 00:09:00,VALID,918.87,VALID,0,VALID,99.9741,VALID,0.0849042,VALID,18.5346,VALID,357,VALID,0.955602,
2005-12-26, 00:10:00,VALID,918.885,VALID,0,VALID,99.9649,VALID,0.0849042,VALID,18.6034,VALID,16,VALID,0.43093,
2005-12-26, 00:11:00,VALID,918.875,VALID,0,VALID,99.7408,VALID,0.118866,VALID,18.5833,VALID,324,VALID,0.365767,
2005-12-26, 00:12:00,VALID,918.857,VALID,0,VALID,99.6086,VALID,0.118866,VALID,18.5831,VALID,312,VALID,0.314174,
2005-12-26, 00:13:00,VALID,918.851,VALID,0,VALID,99.6289,VALID,0.101885,VALID,18.5796,VALID,312,VALID,0.139236,
2005-12-26, 00:14:00,VALID,918.836,VALID,0,VALID,99.5908,VALID,0.101885,VALID,18.5796,VALID,312,VALID,0.208333,
2005-12-26, 00:15:00,VALID,918.805,VALID,0,VALID,99.6506,VALID,0.101885,VALID,18.557,VALID,312,VALID,0,
2005-12-26, 00:16:00,VALID,918.793,VALID,0,VALID,99.723,VALID,0.118866,VALID,18.5441,VALID,312,VALID,0.105469,
2005-12-26, 00:17:00,VALID,918.767,VALID,0,VALID,99.8362,VALID,0.101885,VALID,18.5506,VALID,312,VALID,0.285073,
2005-12-26, 00:18:00,VALID,918.763,VALID,0,VALID,99.9201,VALID,0.101885,VALID,18.5699,VALID,312,VALID,0.326265,
2005-12-26, 00:19:00,VALID,918.761,VALID,0,VALID,99.8706,VALID,0.101885,VALID,18.5736,VALID,312,VALID,0.32848,
2005-12-26, 00:20:00,VALID,918.743,VALID,0,VALID,99.8413,VALID,0.0849042,VALID,18.554,VALID,312,VALID,0.106357,
2005-12-26, 00:21:00,VALID,918.715,VALID,0,VALID,99.9125,VALID,0.101885,VALID,18.5277,VALID,312,VALID,0.00111607,
2005-12-26, 00:22:00,VALID,918.727,VALID,0,VALID,99.8871,VALID,0.101885,VALID,18.5383,VALID,312,VALID,0.164648,
2005-12-26, 00:23:00,VALID,918.718,VALID,0,VALID,99.7943,VALID,0.101885,VALID,18.506,VALID,316,VALID,0.524771,
2005-12-26, 00:24:00,VALID,918.695,VALID,0,VALID,99.8044,VALID,0.0679233,VALID,18.4797,VALID,7,VALID,0.967383,
2005-12-26, 00:25:00,VALID,918.702,VALID,0,VALID,99.8235,VALID,0.101885,VALID,18.4797,VALID,8,VALID,0.590625,
2005-12-26, 00:26:00,VALID,918.716,VALID,0,VALID,99.7879,VALID,0.101885,VALID,18.467,VALID,3,VALID,0.271257,
2005-12-26, 00:27:00,VALID,918.699,VALID,0,VALID,99.8744,VALID,0.0679233,VALID,18.4571,VALID,3,VALID,0.237723,
2005-12-26, 00:28:00,VALID,918.697,VALID,0,VALID,99.9802,VALID,0.101885,VALID,18.4762,VALID,2,VALID,0.145349,
2005-12-26, 00:29:00,VALID,918.677,VALID,0,VALID,100,VALID,0.0849042,VALID,18.4956,VALID,1,VALID,0.423735,
2005-12-26, 00:30:00,VALID,918.661,VALID,0,VALID,100,VALID,0.118866,VALID,18.4959,VALID,1,VALID,0.350446,
2005-12-26, 00:31:00,VALID,918.67,VALID,0,VALID,99.9908,VALID,0.0849042,VALID,18.4827,VALID,21,VALID,0.5625,
2005-12-26, 00:32:00,VALID,918.679,VALID,0,VALID,99.9507,VALID,0.101885,VALID,18.4862,VALID,300,VALID,0.681597,
2005-12-26, 00:33:00,VALID,918.686,VALID,0,VALID,99.9903,VALID,0.101885,VALID,18.4799,VALID,243,VALID,0.558949,
2005-12-26, 00:34:00,VALID,918.668,VALID,0,VALID,100,VALID,0.0679233,VALID,18.503,VALID,307,VALID,0.505952,
2005-12-26, 00:35:00,VALID,918.66,VALID,0,VALID,100,VALID,0,VALID,18.5037,VALID,358,VALID,0.881037,
2005-12-26, 00:36:00,VALID,918.667,VALID,0,VALID,100,VALID,-0.0169808,VALID,18.4972,VALID,342,VALID,0.700284,
2005-12-26, 00:37:00,VALID,918.641,VALID,0,VALID,99.999,VALID,-0.0169808,VALID,18.5037,VALID,354,VALID,0.792067,
2005-12-26, 00:38:00,VALID,918.646,VALID,0,VALID,99.8744,VALID,0,VALID,18.5062,VALID,353,VALID,0.595385,
2005-12-26, 00:39:00,VALID,918.644,VALID,0,VALID,99.751,VALID,0,VALID,18.5358,VALID,348,VALID,0.444586,
2005-12-26, 00:40:00,VALID,918.652,VALID,0,VALID,99.6264,VALID,0.0169808,VALID,18.5649,VALID,334,VALID,0.440476,
2005-12-26, 00:41:00,VALID,918.636,VALID,0,VALID,99.5463,VALID,-0.0169808,VALID,18.5817,VALID,238,VALID,0.31441,
2005-12-26, 00:42:00,VALID,918.633,VALID,0,VALID,99.5081,VALID,0.0169808,VALID,18.5776,VALID,308,VALID,0.306593,
2005-12-26, 00:43:00,VALID,918.615,VALID,0,VALID,99.4954,VALID,-0.0169808,VALID,18.5942,VALID,308,VALID,0.291606,
2005-12-26, 00:44:00,VALID,918.61,VALID,0,VALID,99.6277,VALID,0,VALID,18.5743,VALID,308,VALID,0.530878,
2005-12-26, 00:45:00,VALID,918.598,VALID,0,VALID,99.6544,VALID,0,VALID,18.5748,VALID,308,VALID,0.136719,
2005-12-26, 00:46:00,VALID,918.578,VALID,0,VALID,99.7192,VALID,-0.0169808,VALID,18.5686,VALID,322,VALID,0.473558,
2005-12-26, 00:47:00,VALID,918.56,VALID,0,VALID,99.6188,VALID,-0.0169808,VALID,18.5815,VALID,354,VALID,0.888951,
2005-12-26, 00:48:00,VALID,918.543,VALID,0,VALID,99.4039,VALID,-0.0169808,VALID,18.5944,VALID,329,VALID,0.777344,
2005-12-26, 00:49:00,VALID,918.528,VALID,0,VALID,99.2411,VALID,0,VALID,18.6141,VALID,340,VALID,0.367001,
2005-12-26, 00:50:00,VALID,918.528,VALID,0,VALID,99.2258,VALID,-0.0339617,VALID,18.6365,VALID,340,VALID,0.154119,
2005-12-26, 00:51:00,VALID,918.521,VALID,0,VALID,99.1661,VALID,-0.0339617,VALID,18.6432,VALID,295,VALID,0.40439,
2005-12-26, 00:52:00,VALID,918.523,VALID,0,VALID,99.3021,VALID,-0.0339617,VALID,18.6141,VALID,295,VALID,0.316146,
2005-12-26, 00:53:00,VALID,918.553,VALID,0,VALID,99.4827,VALID,-0.0339617,VALID,18.5912,VALID,295,VALID,0.205208,
2005-12-26, 00:54:00,VALID,918.558,VALID,0,VALID,99.7002,VALID,-0.0169808,VALID,18.5718,VALID,309,VALID,0.31436,
2005-12-26, 00:55:01,VALID,918.553,VALID,0,VALID,99.8108,VALID,0,VALID,18.533,VALID,346,VALID,0.584162,
2005-12-26, 00:56:00,VALID,918.561,VALID,0,VALID,99.9845,VALID,0,VALID,18.5206,VALID,348,VALID,0.404046,
2005-12-26, 00:57:00,VALID,918.539,VALID,0,VALID,99.988,VALID,0,VALID,18.4689,VALID,348,VALID,0.219658,
2005-12-26, 00:58:00,VALID,918.525,VALID,0,VALID,100,VALID,-0.0169808,VALID,18.4328,VALID,348,VALID,0.142014,
2005-12-26, 00:59:00,VALID,918.514,VALID,0,VALID,100,VALID,-0.0169808,VALID,18.4331,VALID,348,VALID,0,
2005-12-26, 01:00:00,VALID,918.497,VALID,0,VALID,100,VALID,0,VALID,18.4035,VALID,348,VALID,0,
2005-12-26, 01:01:00,VALID,918.499,VALID,0,VALID,100,VALID,-0.0169808,VALID,18.3975,VALID,348,VALID,0,
2005-12-26, 01:02:00,VALID,918.487,VALID,0,VALID,100,VALID,0,VALID,18.3841,VALID,348,VALID,0,
2005-12-26, 01:03:00,VALID,918.448,VALID,0,VALID,100,VALID,0.0169808,VALID,18.3878,VALID,348,VALID,0,
2005-12-26, 01:04:00,VALID,918.424,VALID,0,VALID,100,VALID,0,VALID,18.3744,VALID,348,VALID,0,
2005-12-26, 01:05:00,VALID,918.413,VALID,0,VALID,100,VALID,0,VALID,18.3911,VALID,348,VALID,0,
2005-12-26, 01:06:00,VALID,918.401,VALID,0,VALID,100,VALID,-0.0169808,VALID,18.3747,VALID,348,VALID,0,
2005-12-26, 01:07:00,VALID,918.388,VALID,0,VALID,100,VALID,0,VALID,18.3781,VALID,348,VALID,0.00461648,
2005-12-26, 01:08:00,VALID,918.379,VALID,0,VALID,100,VALID,0,VALID,18.3941,VALID,4,VALID,0.476563,
2005-12-26, 01:09:01,VALID,918.387,VALID,0,VALID,100,VALID,-0.0339617,VALID,18.3908,VALID,4,VALID,0.0379724,
2005-12-26, 01:10:00,VALID,918.375,VALID,0,VALID,100,VALID,0,VALID,18.3943,VALID,350,VALID,0.170058,
2005-12-26, 01:11:00,VALID,918.365,VALID,0,VALID,100,VALID,-0.0169808,VALID,18.3617,VALID,310,VALID,0.397615,
2005-12-26, 01:12:01,VALID,918.338,VALID,0,VALID,100,VALID,-0.0509425,VALID,18.3421,VALID,310,VALID,0.0455729,
2005-12-26, 01:13:00,VALID,918.319,VALID,0,VALID,100,VALID,-0.0169808,VALID,18.3424,VALID,310,VALID,0.182639,
2005-12-26, 01:14:00,VALID,918.306,VALID,0,VALID,100,VALID,0,VALID,18.3391,VALID,310,VALID,0.244665,
2005-12-26, 01:15:00,VALID,918.288,VALID,0,VALID,100,VALID,0,VALID,18.3458,VALID,313,VALID,0.150347,
2005-12-26, 01:16:00,VALID,918.267,VALID,0,VALID,100,VALID,0,VALID,18.3357,VALID,347,VALID,0.344097,
2005-12-26, 01:17:01,VALID,918.245,VALID,0,VALID,100,VALID,0.0169808,VALID,18.3324,VALID,347,VALID,0.0217634,
2005-12-26, 01:18:00,VALID,918.234,VALID,0,VALID,100,VALID,0,VALID,18.3426,VALID,347,VALID,0.251598,
2005-12-26, 01:19:00,VALID,918.227,VALID,0,VALID,100,VALID,0,VALID,18.3521,VALID,347,VALID,0.0965278,
2005-12-26, 01:20:00,VALID,918.214,VALID,0,VALID,100,VALID,0,VALID,18.3617,VALID,353,VALID,0.265625,
2005-12-26, 01:21:01,VALID,918.21,VALID,0,VALID,100,VALID,0.0169808,VALID,18.3751,VALID,12,VALID,0.0611662,
2005-12-26, 01:22:01,VALID,918.194,VALID,0,VALID,100,VALID,-0.0169808,VALID,18.3878,VALID,1,VALID,0.388021,
2005-12-26, 01:23:00,VALID,918.181,VALID,0,VALID,100,VALID,0,VALID,18.4008,VALID,337,VALID,0.547783,
2005-12-26, 01:24:00,VALID,918.176,VALID,0,VALID,100,VALID,0,VALID,18.4296,VALID,356,VALID,0.625908,
2005-12-26, 01:25:00,VALID,918.165,VALID,0,VALID,100,VALID,-0.0339617,VALID,18.449,VALID,11,VALID,0.713672,
2005-12-26, 01:26:01,VALID,918.158,VALID,0,VALID,100,VALID,-0.0169808,VALID,18.4846,VALID,359,VALID,0.689024,
2005-12-26, 01:27:00,VALID,918.14,VALID,0,VALID,99.9977,VALID,-0.0169808,VALID,18.5106,VALID,13,VALID,0.610973,
2005-12-26, 01:28:00,VALID,918.123,VALID,0,VALID,99.8934,VALID,0,VALID,18.5132,VALID,6,VALID,0.540698,
2005-12-26, 01:29:00,VALID,918.106,VALID,0,VALID,99.7574,VALID,-0.0169808,VALID,18.5395,VALID,351,VALID,0.787016,
2005-12-26, 01:30:00,VALID,918.075,VALID,0,VALID,99.5933,VALID,0,VALID,18.5522,VALID,18,VALID,0.748402,
2005-12-26, 01:31:00,VALID,918.053,VALID,0,VALID,99.4458,VALID,-0.0169808,VALID,18.5882,VALID,11,VALID,0.308398,
2005-12-26, 01:32:01,VALID,918.051,VALID,0,VALID,99.292,VALID,-0.0169808,VALID,18.588,VALID,7,VALID,0.21766,
2005-12-26, 01:33:00,VALID,918.034,VALID,0,VALID,99.1953,VALID,-0.0339617,VALID,18.6014,VALID,349,VALID,0.619673,
2005-12-26, 01:34:00,VALID,918.02,VALID,0,VALID,99.0351,VALID,0.0169808,VALID,18.6168,VALID,342,VALID,0.60061,
2005-12-26, 01:35:00,VALID,918.005,VALID,0,VALID,98.866,VALID,0.0679233,VALID,18.6417,VALID,353,VALID,0.803571,
2005-12-26, 01:36:00,VALID,917.99,VALID,0,VALID,98.6905,VALID,0.0849042,VALID,18.6574,VALID,357,VALID,0.926417,
2005-12-26, 01:37:00,VALID,917.982,VALID,0,VALID,98.5621,VALID,0.0679233,VALID,18.6865,VALID,353,VALID,0.603051,
2005-12-26, 01:38:00,VALID,917.977,VALID,0,VALID,98.3815,VALID,0.0849042,VALID,18.7163,VALID,330,VALID,0.420015,
2005-12-26, 01:39:01,VALID,917.973,VALID,0,VALID,98.3281,VALID,0.0849042,VALID,18.7251,VALID,321,VALID,0.175781,
2005-12-26, 01:40:00,VALID,917.957,VALID,0,VALID,98.4133,VALID,0.0849042,VALID,18.7641,VALID,320,VALID,0.00169837,
2005-12-26, 01:41:00,VALID,917.952,VALID,0,VALID,98.3853,VALID,0.0509425,VALID,18.7611,VALID,321,VALID,0,
2005-12-26, 01:42:00,VALID,917.933,VALID,0,VALID,98.4578,VALID,0.118866,VALID,18.7484,VALID,320,VALID,0,
2005-12-26, 01:43:00,VALID,917.915,VALID,0,VALID,98.5277,VALID,0.0679233,VALID,18.7484,VALID,321,VALID,0,
2005-12-26, 01:44:00,VALID,917.908,VALID,0,VALID,98.5252,VALID,0.0679233,VALID,18.7442,VALID,321,VALID,0.00106534,
2005-12-26, 01:45:00,VALID,917.9,VALID,0,VALID,98.4642,VALID,0.0849042,VALID,18.7775,VALID,321,VALID,0,
2005-12-26, 01:46:01,VALID,917.877,VALID,0,VALID,98.3014,VALID,0.0849042,VALID,18.7874,VALID,321,VALID,0,
2005-12-26, 01:47:00,VALID,917.856,VALID,0,VALID,98.3929,VALID,0.0509425,VALID,18.7969,VALID,321,VALID,0.178013,
2005-12-26, 01:48:01,VALID,917.834,VALID,0,VALID,98.487,VALID,0.0679233,VALID,18.7807,VALID,321,VALID,0.159784,
2005-12-26, 01:49:01,VALID,917.821,VALID,0,VALID,98.4438,VALID,0.0679233,VALID,18.7646,VALID,299,VALID,0.248512,
2005-12-26, 01:50:01,VALID,917.825,VALID,0,VALID,98.4235,VALID,0.0849042,VALID,18.7452,VALID,277,VALID,0.13157,
2005-12-26, 01:51:00,VALID,917.794,VALID,0,VALID,98.4578,VALID,0.0849042,VALID,18.7031,VALID,277,VALID,0,
2005-12-26, 01:52:01,VALID,917.77,VALID,0,VALID,98.5964,VALID,0.0849042,VALID,18.6833,VALID,277,VALID,0.141352,
2005-12-26, 01:53:00,VALID,917.767,VALID,0,VALID,98.8024,VALID,0.0849042,VALID,18.6706,VALID,280,VALID,0.0685096,
2005-12-26, 01:54:00,VALID,917.758,VALID,0,VALID,98.9474,VALID,0.0849042,VALID,18.6579,VALID,280,VALID,0,
2005-12-26, 01:55:01,VALID,917.755,VALID,0,VALID,98.9792,VALID,0.101885,VALID,18.6422,VALID,280,VALID,0,
2005-12-26, 01:56:01,VALID,917.75,VALID,0,VALID,99.0936,VALID,0.0679233,VALID,18.6256,VALID,280,VALID,0,
2005-12-26, 01:57:00,VALID,917.732,VALID,0,VALID,99.2182,VALID,0.101885,VALID,18.6157,VALID,280,VALID,0.0093006,
2005-12-26, 01:58:00,VALID,917.705,VALID,0,VALID,99.3199,VALID,0.0849042,VALID,18.6097,VALID,280,VALID,0.0807292,
2005-12-26, 01:59:00,VALID,917.676,VALID,0,VALID,99.4547,VALID,0.101885,VALID,18.5967,VALID,280,VALID,0.00223214,
2005-12-26, 02:00:00,VALID,917.661,VALID,0,VALID,99.5259,VALID,0.118866,VALID,18.5838,VALID,280,VALID,0,
2005-12-26, 02:01:00,VALID,917.644,VALID,0,VALID,99.5679,VALID,0.101885,VALID,18.558,VALID,280,VALID,0,
2005-12-26, 02:02:00,VALID,917.615,VALID,0,VALID,99.6124,VALID,0.118866,VALID,18.5383,VALID,280,VALID,0,
2005-12-26, 02:03:00,VALID,917.594,VALID,0,VALID,99.6239,VALID,0.135847,VALID,18.5215,VALID,280,VALID,0,
2005-12-26, 02:04:00,VALID,917.574,VALID,0,VALID,99.6277,VALID,0.118866,VALID,18.5025,VALID,280,VALID,0,
2005-12-26, 02:05:00,VALID,917.556,VALID,0,VALID,99.6785,VALID,0.118866,VALID,18.4892,VALID,280,VALID,0,
2005-12-26, 02:06:00,VALID,917.521,VALID,0,VALID,99.5921,VALID,0.101885,VALID,18.4894,VALID,280,VALID,0,
2005-12-26, 02:07:00,VALID,917.509,VALID,0,VALID,99.5654,VALID,0.0849042,VALID,18.4702,VALID,280,VALID,0,
2005-12-26, 02:08:00,VALID,917.5,VALID,0,VALID,99.573,VALID,0.101885,VALID,18.4899,VALID,249,VALID,0,
2005-12-26, 02:09:01,VALID,917.471,VALID,0,VALID,99.5399,VALID,0.0849042,VALID,18.4896,VALID,218,VALID,0.290334,
2005-12-26, 02:10:00,VALID,917.438,VALID,0,VALID,99.4751,VALID,0.101885,VALID,18.4866,VALID,209,VALID,0,
2005-12-26, 02:11:00,VALID,917.408,VALID,0,VALID,99.531,VALID,0.0679233,VALID,18.4827,VALID,209,VALID,0,
2005-12-26, 02:12:01,VALID,917.382,VALID,0,VALID,99.4992,VALID,0.0849042,VALID,18.4663,VALID,209,VALID,0.116655,
2005-12-26, 02:13:01,VALID,917.374,VALID,0,VALID,99.4547,VALID,0.101885,VALID,18.4762,VALID,209,VALID,0.0403963,
2005-12-26, 02:14:00,VALID,917.368,VALID,0,VALID,99.4776,VALID,0.101885,VALID,18.4638,VALID,209,VALID,0.00558036,
2005-12-26, 02:15:00,VALID,917.353,VALID,0,VALID,99.5069,VALID,0.0679233,VALID,18.4536,VALID,209,VALID,0,
2005-12-26, 02:16:01,VALID,917.336,VALID,0,VALID,99.4649,VALID,0.101885,VALID,18.4536,VALID,209,VALID,0,
2005-12-26, 02:17:01,VALID,917.332,VALID,0,VALID,99.4433,VALID,0.101885,VALID,18.4573,VALID,209,VALID,0,
2005-12-26, 02:18:00,VALID,917.31,VALID,0,VALID,99.5069,VALID,0.101885,VALID,18.4474,VALID,209,VALID,0,
2005-12-26, 02:19:01,VALID,917.289,VALID,0,VALID,99.5323,VALID,0.0679233,VALID,18.4538,VALID,209,VALID,0,
2005-12-26, 02:20:00,VALID,917.265,VALID,0,VALID,99.5603,VALID,0,VALID,18.4557,VALID,209,VALID,0,
2005-12-26, 02:21:00,VALID,917.244,VALID,0,VALID,99.5603,VALID,0,VALID,18.4488,VALID,209,VALID,0,
2005-12-26, 02:22:00,VALID,917.228,VALID,0,VALID,99.5488,VALID,0,VALID,18.4455,VALID,209,VALID,0,
2005-12-26, 02:23:00,VALID,917.205,VALID,0,VALID,99.531,VALID,0,VALID,18.4425,VALID,209,VALID,0,
2005-12-26, 02:24:01,VALID,917.198,VALID,0,VALID,99.4318,VALID,0,VALID,18.4356,VALID,209,VALID,0,
2005-12-26, 02:25:00,VALID,917.178,VALID,0,VALID,99.3072,VALID,0,VALID,18.4455,VALID,209,VALID,0,
2005-12-26, 02:26:01,VALID,917.16,VALID,0,VALID,99.1712,VALID,0,VALID,18.4393,VALID,209,VALID,0,
2005-12-26, 02:27:00,VALID,917.133,VALID,0,VALID,99.1534,VALID,0,VALID,18.4095,VALID,209,VALID,0,
2005-12-26, 02:28:00,VALID,917.116,VALID,0,VALID,99.2691,VALID,0,VALID,18.4102,VALID,193,VALID,0.357329,
2005-12-26, 02:29:01,VALID,917.102,VALID,0,VALID,99.264,VALID,0.0169808,VALID,18.3938,VALID,29,VALID,0.682478,
2005-12-26, 02:30:01,VALID,917.071,VALID,0,VALID,99.2322,VALID,0,VALID,18.3682,VALID,28,VALID,0.335007,
2005-12-26, 02:31:00,VALID,917.049,VALID,0,VALID,99.2284,VALID,0,VALID,18.3516,VALID,28,VALID,0.171342,
2005-12-26, 02:32:01,VALID,917.012,VALID,0,VALID,99.2678,VALID,0,VALID,18.3712,VALID,27,VALID,0.23056,
2005-12-26, 02:33:00,VALID,916.984,VALID,0,VALID,99.2449,VALID,0.0169808,VALID,18.3742,VALID,27,VALID,0.0630716,
2005-12-26, 02:34:00,VALID,916.949,VALID,0,VALID,99.1775,VALID,0.0169808,VALID,18.3807,VALID,19,VALID,0.322088,
2005-12-26, 02:35:00,VALID,916.93,VALID,0,VALID,99.1852,VALID,-0.0169808,VALID,18.404,VALID,6,VALID,0.38502,
2005-12-26, 02:36:00,VALID,916.917,VALID,0,VALID,99.1381,VALID,0.0169808,VALID,18.4195,VALID,6,VALID,0.564098,
2005-12-26, 02:37:00,VALID,916.901,VALID,0,VALID,99.0504,VALID,0,VALID,18.4192,VALID,6,VALID,0.477108,
2005-12-26, 02:38:01,VALID,916.891,VALID,0,VALID,98.8304,VALID,0,VALID,18.4202,VALID,5,VALID,0.654344,
2005-12-26, 02:39:00,VALID,916.866,VALID,0,VALID,98.8533,VALID,0,VALID,18.3938,VALID,356,VALID,0.579241,
2005-12-26, 02:40:00,VALID,916.865,VALID,0,VALID,98.9296,VALID,0.0169808,VALID,18.4001,VALID,354,VALID,0.610156,
2005-12-26, 02:41:00,VALID,916.85,VALID,0,VALID,98.9461,VALID,0,VALID,18.4137,VALID,354,VALID,0.303163,
2005-12-26, 02:42:01,VALID,916.847,VALID,0,VALID,99.0415,VALID,0,VALID,18.4197,VALID,354,VALID,0.0679687,
2005-12-26, 02:43:01,VALID,916.834,VALID,0,VALID,99.1546,VALID,0,VALID,18.4453,VALID,354,VALID,0.0152616,
2005-12-26, 02:44:00,VALID,916.817,VALID,0,VALID,99.1635,VALID,0.0339617,VALID,18.4492,VALID,354,VALID,0,
2005-12-26, 02:45:01,VALID,916.794,VALID,0,VALID,99.1267,VALID,0,VALID,18.449,VALID,354,VALID,0.237909,
2005-12-26, 02:46:01,VALID,916.774,VALID,0,VALID,99.0287,VALID,0.0169808,VALID,18.452,VALID,354,VALID,0.240278,
2005-12-26, 02:47:01,VALID,916.752,VALID,0,VALID,98.9766,VALID,0,VALID,18.4686,VALID,357,VALID,0.272905,
2005-12-26, 02:48:01,VALID,916.714,VALID,0,VALID,98.9868,VALID,0.0169808,VALID,18.4781,VALID,8,VALID,0.552202,
2005-12-26, 02:49:01,VALID,916.701,VALID,0,VALID,99.0618,VALID,0,VALID,18.4719,VALID,8,VALID,0.402344,
2005-12-26, 02:50:01,VALID,916.674,VALID,0,VALID,99.105,VALID,0,VALID,18.4518,VALID,8,VALID,0.155664,
2005-12-26, 02:51:01,VALID,916.665,VALID,0,VALID,99.1089,VALID,-0.0339617,VALID,18.4368,VALID,8,VALID,0,
2005-12-26, 02:52:00,VALID,916.646,VALID,0,VALID,99.1508,VALID,0,VALID,18.4072,VALID,8,VALID,0,
2005-12-26, 02:53:01,VALID,916.638,VALID,0,VALID,99.1953,VALID,0,VALID,18.3749,VALID,7,VALID,0,
2005-12-26, 02:54:00,VALID,916.633,VALID,0,VALID,99.3759,VALID,0,VALID,18.3687,VALID,7,VALID,0,
2005-12-26, 02:55:01,VALID,916.618,VALID,0,VALID,99.634,VALID,0,VALID,18.3647,VALID,5,VALID,0,
2005-12-26, 02:56:01,VALID,916.623,VALID,0,VALID,99.7269,VALID,-0.0509425,VALID,18.3751,VALID,5,VALID,0,
2005-12-26, 02:57:00,VALID,916.608,VALID,0,VALID,99.7879,VALID,-0.0169808,VALID,18.3458,VALID,5,VALID,0,
2005-12-26, 02:58:00,VALID,916.615,VALID,0,VALID,99.8667,VALID,0,VALID,18.3426,VALID,5,VALID,0,
2005-12-26, 02:59:01,VALID,916.601,VALID,0,VALID,99.8756,VALID,0,VALID,18.3133,VALID,5,VALID,0,
2005-12-26, 03:00:01,VALID,916.595,VALID,0,VALID,99.8604,VALID,-0.0339617,VALID,18.2973,VALID,5,VALID,0,
2005-12-26, 03:01:01,VALID,916.575,VALID,0,VALID,99.8502,VALID,0,VALID,18.2784,VALID,5,VALID,0,
2005-12-26, 03:02:01,VALID,916.556,VALID,0,VALID,99.9629,VALID,-0.0169808,VALID,18.2583,VALID,5,VALID,0,
2005-12-26, 03:03:01,VALID,916.543,VALID,0,VALID,100,VALID,0.0169808,VALID,18.2553,VALID,5,VALID,0,
2005-12-26, 03:04:01,VALID,916.529,VALID,0,VALID,100,VALID,-0.0169808,VALID,18.2392,VALID,5,VALID,0,
2005-12-26, 03:05:01,VALID,916.521,VALID,0,VALID,100,VALID,0.0169808,VALID,18.226,VALID,5,VALID,0,
2005-12-26, 03:06:01,VALID,916.507,VALID,0,VALID,100,VALID,-0.0169808,VALID,18.2099,VALID,5,VALID,0,
2005-12-26, 03:07:01,VALID,916.481,VALID,0,VALID,100,VALID,0,VALID,18.1969,VALID,5,VALID,0,
2005-12-26, 03:08:01,VALID,916.477,VALID,0,VALID,100,VALID,0,VALID,18.2006,VALID,5,VALID,0,
2005-12-26, 03:09:01,VALID,916.463,VALID,0,VALID,100,VALID,0,VALID,18.1875,VALID,5,VALID,0,
2005-12-26, 03:10:01,VALID,916.453,VALID,0,VALID,100,VALID,0.0169808,VALID,18.178,VALID,5,VALID,0,
2005-12-26, 03:11:01,VALID,916.467,VALID,0,VALID,100,VALID,0,VALID,18.1745,VALID,5,VALID,0,
2005-12-26, 03:12:01,VALID,916.465,VALID,0,VALID,100,VALID,0,VALID,18.1683,VALID,5,VALID,0,
2005-12-26, 03:13:00,VALID,916.462,VALID,0,VALID,100,VALID,0,VALID,18.1385,VALID,5,VALID,0,
2005-12-26, 03:14:01,VALID,916.462,VALID,0,VALID,100,VALID,0,VALID,18.1452,VALID,5,VALID,0,
2005-12-26, 03:15:01,VALID,916.463,VALID,0,VALID,100,VALID,0.0169808,VALID,18.1062,VALID,5,VALID,0,
2005-12-26, 03:16:01,VALID,916.45,VALID,0,VALID,100,VALID,0,VALID,18.0871,VALID,5,VALID,0,
2005-12-26, 03:17:01,VALID,916.447,VALID,0,VALID,100,VALID,0,VALID,18.0744,VALID,5,VALID,0,
2005-12-26, 03:18:01,VALID,916.442,VALID,0,VALID,100,VALID,0.0169808,VALID,18.0647,VALID,5,VALID,0,
2005-12-26, 03:19:01,VALID,916.44,VALID,0,VALID,100,VALID,0.0509425,VALID,18.0811,VALID,5,VALID,0,
2005-12-26, 03:20:01,VALID,916.449,VALID,0,VALID,100,VALID,0,VALID,18.0515,VALID,5,VALID,0,
2005-12-26, 03:21:01,VALID,916.466,VALID,0,VALID,100,VALID,0,VALID,18.0584,VALID,315,VALID,0.135603,
2005-12-26, 03:22:01,VALID,916.47,VALID,0,VALID,100,VALID,0.0169808,VALID,18.0395,VALID,210,VALID,0.676669,
2005-12-26, 03:23:01,VALID,916.474,VALID,0,VALID,100,VALID,0,VALID,18.0162,VALID,199,VALID,0.688408,
2005-12-26, 03:24:01,VALID,916.468,VALID,0,VALID,100,VALID,-0.0169808,VALID,18.01,VALID,194,VALID,0.475852,
2005-12-26, 03:25:01,VALID,916.455,VALID,0,VALID,100,VALID,-0.0169808,VALID,17.9998,VALID,200,VALID,0.268466,
2005-12-26, 03:26:01,VALID,916.442,VALID,0,VALID,100,VALID,0,VALID,18.007,VALID,200,VALID,0,
2005-12-26, 03:27:01,VALID,916.432,VALID,0,VALID,100,VALID,0,VALID,18.0037,VALID,200,VALID,0,
2005-12-26, 03:28:01,VALID,916.424,VALID,0,VALID,100,VALID,-0.0169808,VALID,17.9774,VALID,200,VALID,0,
2005-12-26, 03:29:01,VALID,916.423,VALID,0,VALID,100,VALID,0.0169808,VALID,17.9643,VALID,200,VALID,0,
2005-12-26, 03:30:01,VALID,916.425,VALID,0,VALID,100,VALID,0,VALID,17.9451,VALID,200,VALID,0.014881,
2005-12-26, 03:31:01,VALID,916.43,VALID,0,VALID,100,VALID,0,VALID,17.9384,VALID,200,VALID,0.217797,
2005-12-26, 03:32:01,VALID,916.421,VALID,0,VALID,100,VALID,-0.0169808,VALID,17.9617,VALID,217,VALID,0.215625,
2005-12-26, 03:33:01,VALID,916.414,VALID,0,VALID,100,VALID,0,VALID,17.9451,VALID,225,VALID,0,
2005-12-26, 03:34:01,VALID,916.405,VALID,0,VALID,100,VALID,0,VALID,17.9326,VALID,252,VALID,0.417383,
2005-12-26, 03:35:01,VALID,916.404,VALID,0,VALID,100,VALID,-0.0169808,VALID,18.0102,VALID,332,VALID,0.55816,
2005-12-26, 03:36:00,VALID,916.405,VALID,0,VALID,100,VALID,0,VALID,18.0388,VALID,359,VALID,0.187145,
2005-12-26, 03:37:00,VALID,916.427,VALID,0,VALID,100,VALID,-0.0169808,VALID,18.0164,VALID,358,VALID,0.356326,
2005-12-26, 03:38:00,VALID,916.421,VALID,0,VALID,100,VALID,-0.0169808,VALID,18.0748,VALID,254,VALID,0.880269,
2005-12-26, 03:39:00,VALID,916.422,VALID,0,VALID,100,VALID,-0.0169808,VALID,18.1364,VALID,246,VALID,0.78683,
2005-12-26, 03:40:00,VALID,916.415,VALID,0,VALID,100,VALID,-0.0339617,VALID,18.1265,VALID,246,VALID,0.297266,
2005-12-26, 03:41:00,VALID,916.417,VALID,0,VALID,100,VALID,-0.0509425,VALID,18.1164,VALID,247,VALID,0.215554,
2005-12-26, 03:42:00,VALID,916.4,VALID,0,VALID,100,VALID,-0.0339617,VALID,18.094,VALID,248,VALID,0.260901,
2005-12-26, 03:43:00,VALID,916.401,VALID,0,VALID,100,VALID,0,VALID,18.1099,VALID,248,VALID,0.0504092,
2005-12-26, 03:44:00,VALID,916.404,VALID,0,VALID,100,VALID,0,VALID,18.1166,VALID,248,VALID,0.083939,